User: anonymous   Login
Location: Härggis
(46.9540°N, 8.4897°E)
Time: 06:45:27
(UTC+00:00)
Language:

SL-16 R/B - Orbit

View from above orbital plane
View from above orbital plane
View from above satellite
View from above satellite

Ground track
Ground track

The orbit data is extracted from the following two-line orbital elements,

1 27006U 01056F   22228.83698299 -.00000001  00000-0  49136-4 0  9996
2 27006  99.5854   4.3823 0015472  96.1412  67.8846 13.70981946 34935
Epoch (UTC): 16 August 2022 20:05:15
Eccentricity: 0.0015472
inclination: 99.5854°
perigee height: 984 km
apogee height: 1007 km
right ascension of ascending node: 4.3823°
argument of perigee: 96.1412°
revolutions per day: 13.70981946
mean anomaly at epoch: 67.8846°
orbit number at epoch: 3493

The dashed part of the orbit path shows where the satellite is in the earth's shadow,  

DLR